This is the latest recevied weather packets stored in our database for station/object ac2ev. If no packets are shown the sender has not sent any weather packets the latest 10 day(s).
| Time | Temp. | Humidity | Pressure | Rain* | Wind** | Luminosity | Snow |
|---|---|---|---|---|---|---|---|
| 1788034591 | 26.11° C | 47% | 1020.2 hPa | 0 mm | - | - | - |
| 1788034292 | 26.11° C | 48% | 1020.3 hPa | 0 mm | - | - | - |
| 1788033990 | 26.67° C | 48% | 1020.3 hPa | 0 mm | - | - | - |
| 1788033692 | 26.11° C | 49% | 1020.2 hPa | 0 mm | - | - | - |
| 1788033390 | 26.11° C | 49% | 1020.5 hPa | 0 mm | - | - | - |
| 1788033093 | 25.56° C | 49% | 1020.6 hPa | 0 mm | - | - | - |
| 1788032791 | 26.11° C | 49% | 1020.8 hPa | 0 mm | - | - | - |
| 1788032491 | 26.11° C | 48% | 1020.7 hPa | 0 mm | - | - | - |
| 1788032190 | 26.11° C | 50% | 1020.8 hPa | 0 mm | - | - | - |
| 1788031891 | 26.11° C | 50% | 1020.7 hPa | 0 mm | - | - | - |
| 1788031591 | 26.11° C | 50% | 1020.8 hPa | 0 mm | - | - | - |
| 1788031290 | 25.56° C | 50% | 1020.7 hPa | 0 mm | - | - | - |
| 1788030990 | 25.56° C | 50% | 1020.8 hPa | 0 mm | - | - | - |
| 1788030691 | 25.56° C | 49% | 1020.9 hPa | 0 mm | - | - | - |
| 1788030390 | 25.56° C | 50% | 1021.1 hPa | 0 mm | - | - | - |
| 1788030091 | 25.56° C | 49% | 1021 hPa | 0 mm | - | - | - |
| 1788029791 | 25.56° C | 50% | 1021 hPa | 0 mm | - | - | - |
| 1788029491 | 25.56° C | 49% | 1021 hPa | 0 mm | - | - | - |
| 1788029190 | 25.56° C | 50% | 1021 hPa | 0 mm | - | - | - |
| 1788028891 | 25.56° C | 51% | 1021.2 hPa | 0 mm | - | - | - |
| 1788028590 | 25° C | 52% | 1021.4 hPa | 0 mm | - | - | - |
| 1788028291 | 25° C | 51% | 1021.4 hPa | 0 mm | - | - | - |
| 1788027990 | 25° C | 54% | 1021.5 hPa | 0 mm | - | - | - |
| 1788027691 | 24.44° C | 52% | 1021.6 hPa | 0 mm | - | - | - |
| 1788027390 | 24.44° C | 54% | 1021.7 hPa | 0 mm | - | - | - |
* Rain latest hour (hover to see other rain measurements)
** Current wind speed in m/s (hover to see current wind gust speed)